METEOR 2-11 DEB, 40704

Orbit data source: Space-Track

METEOR 2-11 DEB, 40704 is space debris in LEO originally from a launch on Thu, 05 Jul 1984 UTC launched from the Plesetsk Missile And Space Complex (PKMTR). Debris objects in space refer to the collection of defunct objects orbiting the Earth. Examples of debris include non-operational satellites, rocket bodies, and fragments generated from explosions, collisions, or faulty payload assembly.

Loading next visibility...
Identifier
40704, 1984-072F
Orbit
LEO
Last TLE update
1 week ago
Origin
Manufacturer
Unknown
Mission
Spacecraft
Bus & Motor
Unknown
Mass
Unknown
Launch date (UTC)
1984-07-05 (41 years ago)
Launch vehicle
Unknown
Launch site
Plesetsk Missile And Space Complex (PKMTR)
Object type
Payload
Rocket body
Debris
Shape & HBR
Unknown
Radar Cross Section
Small (<0.1 m²)

Expand to show TLE details & history

TLE from 1 week ago
0 METEOR 2-11 DEB
1 40704U 84072F   25176.06646832  .00001267  00000-0  88660-3 0  9999
2 40704  82.5188 297.1448 0026246 270.0487  89.7673 13.97580565517475
Epoch: 2025-06-25T01:35Z
TLE epoch observation values (Epoch: 2025-06-25T01:35:42.862Z)
Latitude
-0.00005°
Longitude
-0.23717°
Altitude
905.078 km
Speed
7.399 km/s
True Right ascension
19h 48m 34s
True Declination
0° 00' 00"
Sunlit
Object was in full shadow at epoch
Visualization orbit readout
Latitude
0.82911°
Longitude
173.08824°
Altitude
897.7 km
Speed
7.407 km/s
Apparent Right ascension
05h 31m 51s
Apparent Declination
-21° 35' 57"
Sunlit
Object is in daylight
Visualization observer readout
Local Sidereal Time
14:38:39
Azimuth
283.395° WNW
Elevation
-49.042°
Doppler factor
1
Orbital elements
Apogee altitude
918.42 km
Perigee altitude
880.219 km
Semi-major axis
7,277.457 km
Eccentricity
0.00262
Inclination
82.5188°
RAAN
297.1448°
Arg. of periapsis
270.0487°
True anomaly
Unknown
Mean anomaly
89.7673°
Eccentric anomaly
Unknown
Mean motion
3.49602 °/min
Orbital period
102.97 mins
BSTAR
0.0008866
Loading maneuver chart data...
Loading SW <> Apogee altitude chart data...
Loading historical data...
Loading historical data...
Loading historical data...
Loading historical data...
Loading historical data...
Loading historical data...
Loading historical data...

METEOR 2-11 DEB Visibility forecast

Observer location: undefined°, undefined°

Span
Click to sort rows by Start time (UTC) header in descending order
Start Az.
Max El. time (UTC)
Max El. Az.
Max El.
End time (UTC)
End Az.
10 mins2025-07-03 07:17:33.934Z158.901° S2025-07-03 07:22:33.934Z98.696° ESE34.107°2025-07-03 07:27:33.934Z24.759° NE
8 mins2025-07-03 09:03:33.934Z243.993° WSW2025-07-03 09:06:33.934Z282.786° WNW23.509°2025-07-03 09:11:33.934Z342.042° N
8 mins2025-07-03 18:05:33.934Z21.076° NNE2025-07-03 18:09:33.934Z75.206° E26.435°2025-07-03 18:13:33.934Z127.543° SE
9 mins2025-07-03 19:49:33.934Z326.819° NNW2025-07-03 19:53:33.934Z265.874° W30.488°2025-07-03 19:58:33.934Z206.64° SW
|